This is the latest recevied weather packets stored in our database for station/object DL9NEE-10. If no packets are shown the sender has not sent any weather packets the latest 10 day(s).
| Time | Temp. | Humidity | Pressure | Rain* | Wind** | Luminosity | Snow |
|---|---|---|---|---|---|---|---|
| 1778034282 | 13.33° C | 74% | 1009.2 hPa | - | - | - | - |
| 1778033382 | 14.44° C | 73% | 1009.1 hPa | - | - | - | - |
| 1778029782 | 13.89° C | 74% | 1009.1 hPa | - | - | - | - |
| 1778027081 | 14.44° C | 73% | 1009.1 hPa | - | - | - | - |
| 1778026181 | 14.44° C | 74% | 1009.3 hPa | - | - | - | - |
| 1778023481 | 15° C | 72% | 1009.5 hPa | - | - | - | - |
| 1778016280 | 15.56° C | 71% | 1009.5 hPa | - | - | - | - |
| 1778013579 | 15.56° C | 70% | 1009.2 hPa | - | - | - | - |
| 1778012679 | 16.11° C | 70% | 1008.9 hPa | - | - | - | - |
| 1778011779 | 16.11° C | 70% | 1008.9 hPa | - | - | - | - |
| 1778010879 | 16.11° C | 70% | 1008.9 hPa | - | - | - | - |
| 1778009979 | 16.11° C | 70% | 1009.2 hPa | - | - | - | - |
| 1778009078 | 16.67° C | 70% | 1009.1 hPa | - | - | - | - |
| 1778008178 | 16.67° C | 71% | 1009 hPa | - | - | - | - |
| 1778007278 | 16.67° C | 70% | 1008.8 hPa | - | - | - | - |
| 1778006378 | 16.67° C | 71% | 1008.7 hPa | - | - | - | - |
| 1778005478 | 16.67° C | 71% | 1008.4 hPa | - | - | - | - |
| 1778004578 | 16.67° C | 70% | 1008.5 hPa | - | - | - | - |
| 1778003678 | 16.67° C | 70% | 1008.3 hPa | - | - | - | - |
| 1778002777 | 17.22° C | 71% | 1008.3 hPa | - | - | - | - |
| 1778001877 | 16.67° C | 71% | 1008.2 hPa | - | - | - | - |
| 1778000977 | 16.67° C | 72% | 1008.2 hPa | - | - | - | - |
| 1778000077 | 16.67° C | 71% | 1008 hPa | - | - | - | - |
| 1777999177 | 16.67° C | 72% | 1008.1 hPa | - | - | - | - |
| 1777998277 | 16.11° C | 73% | 1008.3 hPa | - | - | - | - |
* Rain since midnight (hover to see other rain measurements)
** Current wind speed in m/s (hover to see current wind gust speed)